User: anonymous   Login
Location: Clatteringshaws Loch
(55.0508°N, 4.2860°W)
Time: 16:19:29
(UTC+01:00)
Language:

Sapphire - Orbit

View from above orbital plane
View from above orbital plane
View from above satellite
View from above satellite

Ground track
Ground track

The orbit data is extracted from the following two-line orbital elements,

1 26932U 01043D   16149.88393345 -.00000026  00000-0  21817-4 0  9996
2 26932  67.0567   4.5149 0008693 258.9784 101.0340 14.30212714765414
Epoch (UTC): 28 May 2016 21:12:51
Eccentricity: 0.0008693
inclination: 67.0567°
perigee height: 785 km
apogee height: 797 km
right ascension of ascending node: 4.5149°
argument of perigee: 258.9784°
revolutions per day: 14.30212714
mean anomaly at epoch: 101.0340°
orbit number at epoch: 76541

The dashed part of the orbit path shows where the satellite is in the earth's shadow,  

DLR